Logan, UT

8:19 PM MST on November 16, 2019 (GMT -0700)
Logan-Cache

Weather History for KLGU - August, 2019

Change the Weather History Date:

Thursday, August 1, 2019

  Actual Average Record
Temperature  
Mean Temperature 72 °F -  
Max Temperature 88 °F 91 °F 100 °F (1989)
Min Temperature 57 °F 56 °F 46 °F (2002)
Cooling Degree Days 8    
Growing Degree Days 22 (Base 50)    
Moisture  
Dew Point 52 °F    
Average Humidity 52    
Maximum Humidity 81    
Minimum Humidity 27    
Precipitation  
Precipitation 0.00 in - - ()
Sea Level Pressure  
Sea Level Pressure 30.00 in    
Wind  
Wind Speed 4 mph (NNW)    
Max Wind Speed 10 mph    
Max Gust Speed -    
Visibility 10 miles    
Events      
Averages and records for this station are not official NWS values.
T = Trace of Precipitation, MM = Missing Value Source: NWS Daily Summary

Daily Weather History Graph

Daily Weather History Graph

Search for Another Location

Airport or City:

Astronomy

Aug. 01, 2019 Rise Set
Actual Time 6:21 AM MDT 8:45 PM MDT
Civil Twilight 5:49 AM MDT 9:16 PM MDT
Nautical Twilight 5:10 AM MDT 9:55 PM MDT
Astronomical Twilight 4:27 AM MDT 10:38 PM MDT
Moon 6:50 AM MDT (8/1) 9:35 PM MDT (8/1)
Length of Visible Light 15h 27m
Length of Day
14h 24m
New Moon, 1% of the Moon is Illuminated
Aug 1
New Moon
Aug 7
First Quarter
Aug 15
Full
Aug 23
Last Quarter
Aug 30
New

Hourly Weather History & Observations

Time (MDT) Temp. Heat Index Dew Point Humidity Pressure Visibility Wind Dir Wind Speed Gust Speed Precip Events Conditions
12:51 AM 63.0 °F - 54.0 °F 72% 29.99 in 10.0 mi North 6.9 mph - N/A   Clear
1:51 AM 62.1 °F - 53.1 °F 72% 29.99 in 10.0 mi Calm Calm - N/A   Clear
2:51 AM 63.0 °F - 53.1 °F 70% 29.97 in 10.0 mi SE 3.5 mph - N/A   Clear
3:51 AM 59.0 °F - 51.1 °F 75% 29.99 in 10.0 mi Calm Calm - N/A   Clear
4:51 AM 59.0 °F - 52.0 °F 78% 29.99 in 10.0 mi NE 3.5 mph - N/A   Clear
5:51 AM 57.0 °F - 50.0 °F 77% 30.02 in 10.0 mi Calm Calm - N/A   Clear
6:51 AM 57.0 °F - 51.1 °F 81% 30.04 in 10.0 mi Calm Calm - N/A   Clear
7:51 AM 60.1 °F - 54.0 °F 80% 30.06 in 10.0 mi NE 3.5 mph - N/A   Clear
8:51 AM 66.0 °F - 52.0 °F 60% 30.06 in 10.0 mi Variable 3.5 mph - N/A   Clear
9:51 AM 69.1 °F - 53.1 °F 57% 30.07 in 10.0 mi North 4.6 mph - N/A   Clear
10:51 AM 75.0 °F - 54.0 °F 48% 30.04 in 10.0 mi North 6.9 mph - N/A   Clear
11:51 AM 78.1 °F - 54.0 °F 43% 30.03 in 10.0 mi Variable 4.6 mph - N/A   Clear
12:51 PM 82.0 °F 81.2 °F 53.1 °F 37% 30.02 in 10.0 mi North 3.5 mph - N/A   Clear
1:51 PM 84.9 °F 83.3 °F 54.0 °F 34% 30.00 in 10.0 mi NNE 4.6 mph - N/A   Clear
2:51 PM 84.9 °F 83.3 °F 54.0 °F 34% 29.98 in 10.0 mi Calm Calm - N/A   Clear
3:51 PM 88.0 °F 85.7 °F 53.1 °F 30% 29.95 in 10.0 mi West 8.1 mph - N/A   Clear
4:51 PM 88.0 °F - 50.0 °F 27% 29.94 in 10.0 mi WNW 10.4 mph - N/A   Clear
5:51 PM 87.1 °F - 48.9 °F 27% 29.94 in 10.0 mi Variable 4.6 mph - N/A   Clear
6:51 PM 88.0 °F - 50.0 °F 27% 29.92 in 10.0 mi SSW 9.2 mph - N/A   Clear
7:51 PM 84.9 °F - 48.9 °F 29% 29.94 in 10.0 mi WSW 4.6 mph - N/A   Clear
8:51 PM 75.9 °F - 53.1 °F 45% 29.97 in 10.0 mi NNW 8.1 mph - N/A   Clear
9:51 PM 71.1 °F - 50.0 °F 47% 29.99 in 10.0 mi NNW 10.4 mph - N/A   Clear
10:51 PM 68.0 °F - 50.0 °F 52% 30.01 in 10.0 mi WNW 4.6 mph - N/A   Clear
11:51 PM 66.9 °F - 50.0 °F 54% 30.01 in 10.0 mi North 5.8 mph - N/A   Clear